GEFSMW_prec_meanprecacc_054.txt.gz
Total_Precipitation_Accumulation
0.37 0.58 0.75 1.03 1.40 1.77 2.33 2.96 3.43 3.49 3.23 2.86 2.47 2.21 1.88 1.65 1.41 1.18 1.04 0.96 0.94 0.97 1.09 0.93 0.96 1.02 0.91 0.80 0.81 0.85 0.87 0.73 0.96 1.03 0.60 0.31 0.23 0.17 0.14 0.16 0.14 0.10 0.11
0.51 0.70 0.97 1.22 1.43 1.81 2.21 2.49 2.39 2.12 1.97 1.91 1.81 1.56 1.53 1.52 1.45 1.36 1.16 0.98 0.97 0.93 0.87 0.84 0.83 0.82 0.79 0.69 0.63 0.71 0.70 0.56 0.79 0.87 0.72 0.39 0.20 0.10 0.05 0.08 0.09 0.11 0.15
0.54 0.78 1.07 1.24 1.29 1.49 1.63 1.57 1.30 1.02 0.99 1.02 0.97 1.10 1.28 1.39 1.43 1.46 1.36 1.22 1.16 1.11 1.04 0.94 0.84 0.76 0.74 0.69 0.63 0.65 0.66 0.55 0.55 0.71 0.85 0.60 0.31 0.22 0.11 0.13 0.19 0.26 0.31
0.43 0.66 0.86 0.89 0.96 1.01 0.89 0.75 0.66 0.55 0.51 0.51 0.54 0.62 0.81 1.10 1.31 1.49 1.54 1.56 1.47 1.32 1.18 1.04 0.85 0.71 0.65 0.65 0.58 0.57 0.62 0.63 0.52 0.53 0.63 0.66 0.63 0.55 0.26 0.12 0.17 0.34 0.40
0.46 0.52 0.51 0.51 0.54 0.53 0.44 0.39 0.40 0.40 0.40 0.41 0.49 0.50 0.49 0.55 0.59 0.68 0.81 0.98 1.12 1.08 0.93 0.86 0.77 0.66 0.58 0.55 0.56 0.61 0.64 0.64 0.57 0.53 0.53 0.59 0.69 0.68 0.57 0.30 0.28 0.35 0.34
0.32 0.34 0.33 0.31 0.31 0.28 0.25 0.31 0.37 0.42 0.43 0.45 0.47 0.46 0.45 0.52 0.54 0.56 0.59 0.60 0.64 0.66 0.64 0.62 0.63 0.61 0.59 0.57 0.54 0.56 0.60 0.62 0.63 0.64 0.65 0.68 0.70 0.72 0.79 0.66 0.57 0.52 0.44
0.17 0.17 0.19 0.21 0.18 0.16 0.14 0.16 0.22 0.28 0.30 0.33 0.37 0.41 0.48 0.51 0.48 0.45 0.42 0.42 0.42 0.45 0.49 0.52 0.56 0.57 0.59 0.65 0.71 0.68 0.65 0.67 0.71 0.72 0.77 0.83 0.83 0.87 0.93 0.89 0.78 0.73 0.70
0.08 0.08 0.08 0.08 0.09 0.09 0.09 0.09 0.10 0.12 0.17 0.23 0.31 0.45 0.63 0.69 0.66 0.63 0.51 0.47 0.47 0.46 0.49 0.56 0.61 0.61 0.62 0.63 0.71 0.74 0.77 0.80 0.79 0.76 0.84 0.89 0.87 0.92 0.99 1.00 0.97 0.86 0.88
0.07 0.04 0.03 0.04 0.04 0.04 0.04 0.05 0.05 0.08 0.16 0.23 0.30 0.35 0.41 0.48 0.49 0.50 0.50 0.48 0.54 0.50 0.55 0.62 0.70 0.72 0.73 0.74 0.77 0.78 0.87 1.00 1.04 1.01 0.99 1.01 0.96 0.95 1.00 1.05 1.04 0.98 0.91
0.04 0.02 0.02 0.02 0.02 0.03 0.05 0.07 0.07 0.14 0.27 0.40 0.45 0.36 0.28 0.26 0.33 0.41 0.47 0.50 0.53 0.54 0.58 0.63 0.66 0.71 0.72 0.74 0.78 0.84 0.94 1.07 1.11 1.15 1.20 1.18 1.12 1.08 1.05 1.01 1.04 1.09 1.06
0.03 0.01 0.01 0.01 0.02 0.03 0.07 0.18 0.24 0.31 0.43 0.58 0.66 0.55 0.38 0.31 0.31 0.34 0.33 0.35 0.42 0.52 0.58 0.56 0.50 0.48 0.53 0.64 0.77 0.85 0.94 1.02 1.05 1.10 1.09 1.03 1.02 1.02 0.91 0.90 0.94 1.00 1.05
0.01 0.01 0.01 0.01 0.01 0.03 0.14 0.38 0.63 0.89 0.95 1.03 1.11 0.96 0.58 0.36 0.28 0.23 0.22 0.28 0.39 0.49 0.54 0.50 0.45 0.44 0.51 0.63 0.76 0.92 1.13 1.25 1.21 1.12 1.01 0.92 0.93 0.95 0.91 0.91 0.85 0.84 0.91
0.01 0.01 0.01 0.01 0.01 0.03 0.09 0.24 0.32 0.56 0.77 0.93 1.04 0.84 0.45 0.25 0.18 0.16 0.21 0.34 0.44 0.47 0.48 0.48 0.53 0.63 0.72 0.82 0.93 0.99 1.14 1.20 1.11 1.05 0.96 0.88 0.85 0.86 0.88 0.90 0.87 0.74 0.74
0.01 0.01 0.01 0.01 0.02 0.02 0.04 0.14 0.19 0.20 0.29 0.53 0.68 0.54 0.31 0.20 0.15 0.15 0.20 0.26 0.28 0.31 0.40 0.53 0.70 0.81 0.87 0.91 0.97 0.94 0.91 0.91 0.85 0.78 0.73 0.75 0.84 0.87 0.82 0.76 0.72 0.68 0.63
0.01 0.01 0.01 0.01 0.02 0.02 0.04 0.10 0.15 0.15 0.22 0.42 0.54 0.42 0.26 0.17 0.11 0.08 0.10 0.13 0.21 0.27 0.37 0.51 0.61 0.60 0.63 0.73 0.80 0.79 0.76 0.69 0.65 0.57 0.44 0.45 0.60 0.72 0.72 0.69 0.63 0.56 0.52
0.02 0.02 0.02 0.01 0.02 0.03 0.03 0.04 0.07 0.12 0.21 0.36 0.48 0.42 0.30 0.18 0.10 0.07 0.08 0.13 0.18 0.23 0.30 0.37 0.37 0.34 0.30 0.29 0.32 0.38 0.44 0.45 0.43 0.38 0.34 0.36 0.41 0.44 0.46 0.52 0.53 0.51 0.47
0.02 0.01 0.01 0.01 0.01 0.03 0.05 0.06 0.06 0.09 0.21 0.35 0.44 0.45 0.39 0.28 0.20 0.13 0.12 0.15 0.18 0.22 0.27 0.26 0.26 0.28 0.28 0.17 0.11 0.14 0.24 0.28 0.27 0.24 0.25 0.25 0.27 0.27 0.23 0.24 0.26 0.30 0.32
0.01 0.01 0.01 0.01 0.01 0.02 0.03 0.04 0.06 0.09 0.18 0.29 0.41 0.48 0.45 0.41 0.38 0.27 0.23 0.23 0.24 0.28 0.32 0.29 0.28 0.29 0.28 0.18 0.13 0.11 0.14 0.23 0.22 0.19 0.17 0.18 0.22 0.22 0.18 0.13 0.15 0.16 0.18
0.01 0.01 0.01 0.02 0.02 0.02 0.02 0.03 0.05 0.09 0.15 0.24 0.39 0.48 0.49 0.47 0.44 0.41 0.36 0.36 0.40 0.37 0.34 0.32 0.33 0.34 0.35 0.24 0.15 0.13 0.18 0.28 0.27 0.24 0.20 0.16 0.17 0.17 0.17 0.14 0.11 0.11 0.14
0.01 0.01 0.01 0.02 0.02 0.03 0.04 0.06 0.07 0.13 0.21 0.26 0.37 0.51 0.60 0.63 0.62 0.56 0.49 0.48 0.55 0.49 0.42 0.38 0.39 0.42 0.47 0.39 0.24 0.17 0.25 0.39 0.39 0.36 0.29 0.23 0.19 0.16 0.12 0.12 0.13 0.11 0.10
0.01 0.02 0.02 0.02 0.03 0.04 0.08 0.13 0.17 0.22 0.25 0.29 0.36 0.48 0.66 0.74 0.73 0.72 0.65 0.62 0.62 0.62 0.60 0.53 0.52 0.54 0.59 0.54 0.33 0.25 0.35 0.46 0.50 0.48 0.42 0.33 0.27 0.21 0.16 0.14 0.14 0.13 0.11
0.01 0.02 0.03 0.04 0.05 0.08 0.17 0.25 0.31 0.32 0.33 0.38 0.45 0.55 0.66 0.59 0.59 0.77 0.81 0.81 0.82 0.81 0.75 0.69 0.63 0.60 0.64 0.62 0.42 0.28 0.38 0.52 0.60 0.61 0.54 0.46 0.38 0.28 0.23 0.21 0.18 0.16 0.14
0.03 0.04 0.05 0.08 0.11 0.19 0.33 0.44 0.45 0.44 0.44 0.47 0.52 0.59 0.65 0.72 0.81 0.87 0.89 0.90 0.90 0.90 0.84 0.78 0.73 0.68 0.70 0.71 0.51 0.37 0.45 0.55 0.65 0.74 0.69 0.57 0.48 0.41 0.31 0.28 0.26 0.21 0.17
0.03 0.05 0.10 0.17 0.25 0.35 0.48 0.56 0.55 0.54 0.53 0.54 0.55 0.59 0.67 0.73 0.81 0.95 1.00 1.01 0.95 0.96 0.93 0.83 0.78 0.76 0.81 0.84 0.68 0.51 0.54 0.65 0.70 0.77 0.78 0.68 0.58 0.51 0.42 0.36 0.34 0.28 0.25
0.05 0.09 0.16 0.24 0.32 0.46 0.57 0.57 0.59 0.65 0.67 0.64 0.62 0.61 0.67 0.77 0.83 0.91 1.00 1.07 1.10 0.98 0.93 0.84 0.76 0.76 0.83 0.88 0.72 0.61 0.65 0.80 0.86 0.80 0.79 0.77 0.66 0.59 0.50 0.43 0.42 0.40 0.38
0.08 0.14 0.23 0.28 0.32 0.44 0.59 0.64 0.71 0.78 0.81 0.78 0.69 0.65 0.67 0.76 0.84 0.92 0.93 0.83 0.83 0.69 0.62 0.62 0.57 0.59 0.64 0.77 0.66 0.57 0.65 0.81 0.87 0.80 0.73 0.74 0.68 0.59 0.52 0.47 0.48 0.46 0.42

GEFSMW_prec_meanprecacc_060.txt.gz
Total_Precipitation_Accumulation
0.38 0.58 0.75 1.03 1.40 1.77 2.34 2.98 3.46 3.52 3.28 2.92 2.53 2.28 1.95 1.71 1.48 1.25 1.09 1.01 1.00 1.05 1.20 1.08 1.16 1.23 1.15 1.05 1.06 1.11 1.12 0.94 1.16 1.23 0.76 0.46 0.38 0.30 0.24 0.22 0.19 0.15 0.15
0.51 0.70 0.97 1.22 1.43 1.81 2.21 2.50 2.40 2.13 1.99 1.94 1.84 1.59 1.56 1.56 1.49 1.40 1.21 1.03 1.03 1.00 0.96 0.95 0.96 1.00 1.03 0.92 0.87 0.96 0.94 0.77 0.98 1.06 0.88 0.52 0.32 0.19 0.13 0.14 0.13 0.14 0.19
0.55 0.79 1.07 1.25 1.29 1.49 1.64 1.57 1.31 1.03 1.00 1.03 0.99 1.12 1.31 1.43 1.47 1.50 1.41 1.25 1.20 1.16 1.11 1.01 0.93 0.88 0.91 0.89 0.85 0.90 0.89 0.77 0.78 0.87 0.97 0.71 0.40 0.28 0.15 0.16 0.22 0.28 0.33
0.44 0.67 0.86 0.89 0.97 1.01 0.89 0.76 0.66 0.56 0.53 0.53 0.57 0.65 0.86 1.15 1.35 1.53 1.58 1.59 1.50 1.35 1.22 1.10 0.92 0.79 0.77 0.80 0.74 0.77 0.83 0.82 0.70 0.68 0.73 0.73 0.70 0.63 0.32 0.16 0.19 0.35 0.40
0.47 0.52 0.51 0.51 0.54 0.53 0.44 0.39 0.40 0.42 0.42 0.44 0.53 0.55 0.53 0.60 0.62 0.71 0.83 0.99 1.13 1.09 0.95 0.88 0.81 0.72 0.66 0.65 0.69 0.78 0.84 0.84 0.73 0.68 0.66 0.68 0.75 0.74 0.63 0.37 0.33 0.37 0.35
0.32 0.34 0.33 0.32 0.31 0.28 0.25 0.31 0.38 0.46 0.48 0.50 0.52 0.51 0.50 0.56 0.57 0.58 0.62 0.61 0.65 0.67 0.65 0.63 0.65 0.64 0.63 0.62 0.62 0.68 0.76 0.82 0.84 0.82 0.83 0.87 0.84 0.82 0.87 0.73 0.62 0.57 0.47
0.17 0.18 0.20 0.21 0.18 0.16 0.14 0.16 0.24 0.32 0.34 0.37 0.42 0.46 0.53 0.55 0.51 0.47 0.44 0.44 0.43 0.46 0.50 0.53 0.57 0.58 0.62 0.68 0.75 0.75 0.75 0.82 0.90 0.92 0.97 1.03 1.03 1.03 1.05 0.99 0.85 0.78 0.73
0.08 0.08 0.08 0.08 0.09 0.09 0.09 0.09 0.10 0.14 0.19 0.25 0.34 0.48 0.66 0.71 0.68 0.65 0.53 0.49 0.47 0.46 0.50 0.56 0.61 0.61 0.63 0.64 0.73 0.77 0.84 0.90 0.93 0.93 1.05 1.12 1.07 1.15 1.20 1.17 1.11 1.00 0.98
0.07 0.04 0.03 0.04 0.04 0.04 0.05 0.06 0.06 0.10 0.17 0.24 0.31 0.37 0.42 0.49 0.50 0.52 0.51 0.48 0.54 0.50 0.55 0.62 0.70 0.73 0.74 0.75 0.78 0.79 0.90 1.07 1.14 1.13 1.15 1.19 1.17 1.20 1.25 1.27 1.24 1.19 1.12
0.04 0.02 0.02 0.02 0.02 0.03 0.05 0.08 0.07 0.14 0.27 0.40 0.46 0.36 0.28 0.27 0.33 0.42 0.48 0.51 0.54 0.55 0.59 0.63 0.66 0.71 0.73 0.75 0.79 0.85 0.95 1.10 1.16 1.24 1.33 1.32 1.27 1.30 1.32 1.29 1.30 1.32 1.30
0.03 0.01 0.01 0.01 0.02 0.03 0.07 0.18 0.24 0.31 0.43 0.58 0.66 0.55 0.38 0.31 0.31 0.34 0.34 0.36 0.44 0.54 0.60 0.57 0.52 0.49 0.54 0.66 0.79 0.87 0.95 1.04 1.07 1.15 1.17 1.15 1.17 1.20 1.14 1.17 1.22 1.27 1.32
0.01 0.01 0.01 0.01 0.01 0.03 0.14 0.38 0.63 0.89 0.95 1.03 1.11 0.96 0.58 0.36 0.29 0.24 0.22 0.29 0.41 0.51 0.56 0.53 0.48 0.47 0.53 0.65 0.78 0.94 1.14 1.27 1.23 1.16 1.07 1.00 1.04 1.10 1.11 1.16 1.15 1.12 1.21
0.01 0.01 0.01 0.01 0.01 0.03 0.09 0.24 0.32 0.56 0.77 0.93 1.04 0.84 0.46 0.26 0.19 0.17 0.22 0.36 0.47 0.51 0.52 0.53 0.57 0.67 0.76 0.86 0.97 1.02 1.16 1.21 1.13 1.08 1.01 0.95 0.93 0.95 1.01 1.09 1.12 1.04 1.03
0.01 0.01 0.01 0.01 0.02 0.02 0.04 0.14 0.19 0.20 0.29 0.53 0.68 0.55 0.32 0.21 0.17 0.17 0.23 0.29 0.32 0.37 0.47 0.59 0.76 0.87 0.92 0.95 1.01 0.99 0.95 0.94 0.87 0.81 0.77 0.82 0.92 0.96 0.90 0.88 0.89 0.91 0.91
0.01 0.01 0.01 0.01 0.02 0.02 0.04 0.10 0.15 0.15 0.23 0.43 0.54 0.43 0.27 0.19 0.13 0.11 0.13 0.18 0.26 0.31 0.44 0.60 0.70 0.69 0.71 0.78 0.86 0.85 0.81 0.76 0.70 0.61 0.48 0.49 0.67 0.82 0.83 0.77 0.74 0.71 0.73
0.02 0.02 0.02 0.01 0.02 0.03 0.04 0.04 0.07 0.12 0.21 0.37 0.49 0.43 0.33 0.21 0.13 0.11 0.13 0.19 0.26 0.31 0.39 0.48 0.48 0.45 0.35 0.34 0.38 0.45 0.51 0.54 0.53 0.45 0.39 0.40 0.45 0.49 0.52 0.58 0.61 0.61 0.61
0.02 0.01 0.01 0.01 0.01 0.03 0.05 0.06 0.06 0.10 0.22 0.37 0.46 0.47 0.42 0.31 0.24 0.16 0.17 0.22 0.27 0.32 0.37 0.37 0.38 0.39 0.38 0.26 0.19 0.19 0.30 0.36 0.37 0.35 0.36 0.30 0.29 0.30 0.27 0.28 0.30 0.35 0.40
0.01 0.01 0.01 0.01 0.01 0.02 0.03 0.05 0.06 0.10 0.19 0.31 0.44 0.50 0.48 0.44 0.42 0.32 0.30 0.33 0.36 0.40 0.43 0.40 0.39 0.42 0.40 0.28 0.20 0.16 0.18 0.28 0.31 0.30 0.28 0.25 0.28 0.26 0.23 0.19 0.19 0.20 0.22
0.01 0.01 0.01 0.02 0.02 0.03 0.03 0.04 0.06 0.10 0.16 0.26 0.41 0.50 0.52 0.51 0.49 0.47 0.46 0.48 0.53 0.49 0.46 0.44 0.45 0.48 0.48 0.34 0.22 0.17 0.24 0.34 0.33 0.32 0.28 0.25 0.25 0.23 0.19 0.19 0.18 0.18 0.20
0.01 0.01 0.01 0.02 0.03 0.04 0.05 0.07 0.09 0.15 0.23 0.28 0.39 0.54 0.64 0.69 0.68 0.65 0.60 0.60 0.68 0.62 0.55 0.51 0.52 0.56 0.62 0.52 0.30 0.21 0.31 0.47 0.48 0.47 0.41 0.32 0.27 0.22 0.14 0.15 0.18 0.17 0.17
0.01 0.02 0.02 0.03 0.05 0.06 0.09 0.15 0.19 0.25 0.27 0.31 0.37 0.51 0.70 0.81 0.81 0.82 0.77 0.74 0.75 0.76 0.75 0.68 0.67 0.69 0.73 0.66 0.38 0.28 0.40 0.55 0.63 0.62 0.55 0.44 0.33 0.23 0.17 0.15 0.17 0.18 0.18
0.01 0.02 0.03 0.05 0.06 0.10 0.19 0.28 0.33 0.34 0.35 0.39 0.47 0.58 0.70 0.65 0.65 0.88 0.92 0.93 0.97 0.96 0.91 0.85 0.79 0.76 0.78 0.72 0.48 0.30 0.40 0.57 0.74 0.77 0.70 0.59 0.45 0.31 0.24 0.21 0.19 0.17 0.16
0.03 0.04 0.06 0.09 0.13 0.21 0.35 0.47 0.47 0.46 0.46 0.49 0.56 0.63 0.70 0.79 0.91 0.99 1.01 1.04 1.06 1.07 1.00 0.96 0.91 0.86 0.88 0.84 0.55 0.38 0.46 0.57 0.73 0.88 0.86 0.68 0.53 0.43 0.32 0.29 0.27 0.22 0.19
0.03 0.05 0.10 0.18 0.27 0.37 0.50 0.58 0.57 0.57 0.56 0.57 0.59 0.63 0.74 0.82 0.93 1.10 1.16 1.16 1.12 1.11 1.08 1.01 0.96 0.96 1.00 1.02 0.79 0.56 0.57 0.65 0.73 0.83 0.85 0.72 0.60 0.53 0.43 0.37 0.34 0.29 0.27
0.05 0.09 0.17 0.26 0.34 0.47 0.58 0.59 0.61 0.68 0.70 0.67 0.65 0.66 0.74 0.88 0.96 1.07 1.15 1.17 1.21 1.05 0.99 0.93 0.90 0.92 1.00 1.01 0.82 0.72 0.76 0.88 0.92 0.89 0.91 0.86 0.72 0.62 0.53 0.47 0.46 0.43 0.41
0.08 0.15 0.24 0.29 0.33 0.45 0.60 0.65 0.73 0.81 0.85 0.82 0.74 0.70 0.75 0.87 0.97 1.07 1.07 0.91 0.86 0.70 0.62 0.63 0.60 0.64 0.69 0.79 0.67 0.59 0.69 0.85 0.91 0.86 0.88 0.89 0.80 0.69 0.60 0.54 0.55 0.53 0.49

GEFSMW_prec_meanprecacc_066.txt.gz
Total_Precipitation_Accumulation
0.38 0.59 0.76 1.04 1.42 1.80 2.37 3.01 3.49 3.55 3.31 2.95 2.56 2.31 1.97 1.75 1.53 1.30 1.13 1.04 1.03 1.08 1.23 1.10 1.18 1.26 1.19 1.10 1.12 1.18 1.20 1.03 1.27 1.37 0.92 0.62 0.56 0.50 0.41 0.38 0.34 0.28 0.28
0.52 0.71 0.98 1.22 1.44 1.82 2.22 2.51 2.41 2.15 2.01 1.95 1.85 1.60 1.58 1.57 1.51 1.41 1.22 1.04 1.04 1.02 0.97 0.96 0.98 1.03 1.05 0.95 0.91 1.02 1.01 0.85 1.08 1.18 1.02 0.66 0.47 0.35 0.31 0.31 0.27 0.26 0.32
0.57 0.80 1.07 1.25 1.29 1.49 1.64 1.58 1.31 1.03 1.00 1.04 1.00 1.14 1.32 1.44 1.49 1.52 1.42 1.26 1.21 1.18 1.12 1.02 0.94 0.90 0.93 0.91 0.88 0.95 0.95 0.82 0.86 0.97 1.11 0.84 0.52 0.38 0.26 0.28 0.32 0.37 0.42
0.46 0.68 0.87 0.89 0.97 1.01 0.89 0.76 0.66 0.57 0.54 0.54 0.58 0.66 0.86 1.16 1.36 1.54 1.59 1.60 1.51 1.36 1.24 1.11 0.94 0.81 0.79 0.81 0.75 0.80 0.89 0.89 0.78 0.79 0.85 0.86 0.86 0.77 0.43 0.25 0.27 0.42 0.48
0.49 0.53 0.51 0.51 0.54 0.53 0.44 0.39 0.41 0.43 0.44 0.45 0.54 0.56 0.54 0.60 0.63 0.71 0.84 1.00 1.13 1.10 0.96 0.89 0.82 0.73 0.67 0.66 0.70 0.80 0.87 0.89 0.80 0.80 0.79 0.81 0.92 0.92 0.79 0.49 0.42 0.47 0.44
0.33 0.34 0.33 0.32 0.31 0.28 0.26 0.32 0.38 0.48 0.49 0.51 0.53 0.52 0.52 0.58 0.58 0.59 0.62 0.62 0.66 0.68 0.66 0.64 0.66 0.65 0.64 0.63 0.63 0.68 0.77 0.85 0.89 0.90 0.95 0.99 0.97 1.00 1.08 0.88 0.73 0.66 0.57
0.18 0.18 0.20 0.21 0.18 0.16 0.14 0.17 0.24 0.32 0.35 0.38 0.43 0.46 0.53 0.56 0.52 0.48 0.45 0.44 0.44 0.47 0.51 0.54 0.59 0.59 0.63 0.69 0.76 0.76 0.76 0.83 0.92 0.97 1.05 1.14 1.12 1.16 1.23 1.15 0.98 0.90 0.87
0.09 0.08 0.08 0.08 0.09 0.09 0.09 0.09 0.10 0.14 0.19 0.26 0.34 0.48 0.66 0.72 0.68 0.66 0.53 0.49 0.48 0.47 0.50 0.57 0.62 0.62 0.64 0.65 0.74 0.78 0.85 0.91 0.94 0.95 1.09 1.19 1.14 1.23 1.34 1.33 1.27 1.16 1.18
0.07 0.04 0.04 0.04 0.04 0.04 0.05 0.06 0.06 0.10 0.17 0.24 0.31 0.37 0.42 0.49 0.50 0.52 0.51 0.48 0.54 0.50 0.55 0.63 0.71 0.74 0.74 0.76 0.79 0.81 0.91 1.07 1.15 1.14 1.17 1.22 1.21 1.25 1.35 1.43 1.42 1.37 1.33
0.04 0.02 0.02 0.02 0.02 0.03 0.05 0.08 0.07 0.14 0.27 0.40 0.46 0.36 0.29 0.27 0.33 0.42 0.49 0.51 0.54 0.55 0.59 0.63 0.66 0.71 0.73 0.76 0.80 0.86 0.96 1.10 1.17 1.25 1.34 1.33 1.30 1.33 1.38 1.40 1.47 1.52 1.50
0.03 0.01 0.01 0.01 0.02 0.03 0.07 0.18 0.24 0.31 0.43 0.58 0.66 0.55 0.38 0.31 0.31 0.35 0.34 0.36 0.44 0.54 0.61 0.58 0.52 0.49 0.55 0.66 0.80 0.88 0.96 1.04 1.08 1.15 1.17 1.16 1.19 1.23 1.18 1.24 1.33 1.45 1.54
0.01 0.01 0.01 0.01 0.01 0.03 0.14 0.38 0.63 0.89 0.95 1.03 1.11 0.96 0.58 0.36 0.29 0.24 0.23 0.29 0.41 0.52 0.57 0.54 0.49 0.47 0.54 0.66 0.80 0.96 1.16 1.28 1.24 1.16 1.07 1.00 1.05 1.11 1.14 1.22 1.23 1.26 1.41
0.01 0.01 0.01 0.01 0.01 0.03 0.09 0.24 0.32 0.56 0.77 0.93 1.04 0.84 0.46 0.26 0.19 0.17 0.22 0.36 0.47 0.51 0.52 0.53 0.58 0.68 0.77 0.87 0.99 1.05 1.19 1.23 1.15 1.09 1.02 0.95 0.94 0.96 1.03 1.13 1.19 1.16 1.21
0.01 0.01 0.01 0.01 0.02 0.02 0.04 0.14 0.19 0.20 0.29 0.53 0.68 0.55 0.32 0.21 0.17 0.17 0.23 0.29 0.32 0.37 0.47 0.59 0.76 0.88 0.93 0.96 1.03 1.01 0.98 0.98 0.90 0.83 0.78 0.83 0.93 0.97 0.91 0.91 0.94 0.99 1.05
0.01 0.01 0.01 0.01 0.02 0.02 0.04 0.10 0.15 0.15 0.23 0.43 0.54 0.43 0.27 0.19 0.13 0.11 0.13 0.18 0.26 0.32 0.44 0.61 0.70 0.70 0.72 0.79 0.87 0.87 0.84 0.79 0.74 0.65 0.51 0.51 0.69 0.83 0.84 0.79 0.77 0.77 0.83
0.02 0.02 0.02 0.01 0.02 0.03 0.04 0.04 0.07 0.12 0.21 0.37 0.49 0.43 0.33 0.21 0.13 0.11 0.13 0.19 0.26 0.31 0.39 0.48 0.49 0.45 0.36 0.35 0.39 0.47 0.55 0.59 0.58 0.50 0.44 0.43 0.47 0.51 0.54 0.60 0.63 0.66 0.68
0.02 0.01 0.01 0.01 0.01 0.03 0.05 0.06 0.06 0.10 0.22 0.37 0.46 0.47 0.42 0.31 0.24 0.16 0.17 0.23 0.28 0.32 0.38 0.37 0.38 0.40 0.38 0.26 0.20 0.21 0.32 0.39 0.41 0.40 0.41 0.34 0.31 0.32 0.29 0.30 0.32 0.37 0.45
0.01 0.01 0.01 0.01 0.01 0.02 0.03 0.05 0.06 0.10 0.19 0.31 0.44 0.50 0.48 0.45 0.42 0.33 0.31 0.33 0.37 0.40 0.44 0.40 0.40 0.43 0.41 0.29 0.21 0.17 0.19 0.30 0.34 0.34 0.32 0.30 0.32 0.31 0.27 0.22 0.21 0.21 0.24
0.01 0.01 0.01 0.02 0.02 0.03 0.03 0.04 0.06 0.10 0.17 0.26 0.41 0.50 0.52 0.51 0.49 0.47 0.46 0.49 0.53 0.49 0.47 0.45 0.46 0.48 0.49 0.35 0.22 0.18 0.24 0.35 0.35 0.35 0.33 0.30 0.29 0.28 0.24 0.24 0.22 0.21 0.22
0.01 0.01 0.01 0.02 0.03 0.04 0.05 0.07 0.09 0.15 0.23 0.28 0.39 0.54 0.64 0.69 0.68 0.65 0.60 0.60 0.69 0.63 0.56 0.51 0.53 0.57 0.62 0.53 0.31 0.22 0.32 0.48 0.50 0.50 0.45 0.38 0.33 0.28 0.19 0.20 0.23 0.19 0.19
0.01 0.02 0.02 0.03 0.05 0.06 0.10 0.15 0.19 0.25 0.27 0.31 0.37 0.51 0.70 0.81 0.81 0.83 0.78 0.75 0.76 0.78 0.77 0.69 0.68 0.70 0.74 0.67 0.39 0.29 0.41 0.56 0.65 0.65 0.59 0.49 0.38 0.28 0.22 0.20 0.22 0.20 0.20
0.01 0.02 0.03 0.05 0.06 0.10 0.19 0.28 0.33 0.34 0.35 0.39 0.47 0.58 0.71 0.65 0.66 0.88 0.93 0.95 0.99 0.97 0.92 0.87 0.81 0.79 0.80 0.73 0.49 0.31 0.41 0.58 0.77 0.81 0.75 0.65 0.49 0.35 0.28 0.25 0.23 0.20 0.19
0.03 0.04 0.06 0.09 0.13 0.21 0.35 0.47 0.47 0.46 0.46 0.50 0.56 0.63 0.70 0.80 0.92 1.00 1.02 1.05 1.08 1.09 1.02 0.97 0.92 0.88 0.90 0.86 0.56 0.39 0.46 0.57 0.74 0.92 0.93 0.74 0.58 0.48 0.36 0.32 0.30 0.25 0.21
0.03 0.05 0.10 0.19 0.27 0.37 0.50 0.58 0.57 0.57 0.56 0.58 0.59 0.63 0.74 0.83 0.94 1.11 1.18 1.18 1.13 1.12 1.09 1.02 0.97 0.97 1.02 1.04 0.80 0.57 0.57 0.66 0.74 0.86 0.91 0.79 0.66 0.58 0.47 0.40 0.36 0.31 0.28
0.05 0.09 0.17 0.26 0.34 0.47 0.58 0.59 0.61 0.68 0.71 0.67 0.66 0.66 0.74 0.88 0.97 1.08 1.17 1.18 1.21 1.05 0.99 0.94 0.90 0.92 1.01 1.02 0.83 0.74 0.77 0.89 0.93 0.91 0.94 0.91 0.76 0.65 0.56 0.49 0.47 0.44 0.41
0.08 0.15 0.24 0.29 0.33 0.45 0.60 0.65 0.73 0.81 0.85 0.82 0.74 0.70 0.75 0.88 0.99 1.09 1.09 0.92 0.87 0.70 0.63 0.63 0.60 0.64 0.69 0.79 0.68 0.60 0.70 0.86 0.92 0.89 0.91 0.92 0.85 0.72 0.63 0.57 0.57 0.54 0.50

GEFSMW_prec_meanprecacc_072.txt.gz
Total_Precipitation_Accumulation
0.51 0.73 0.89 1.12 1.49 1.85 2.41 3.05 3.54 3.60 3.36 2.99 2.60 2.35 2.02 1.80 1.58 1.34 1.16 1.06 1.05 1.11 1.26 1.13 1.20 1.28 1.20 1.11 1.13 1.19 1.21 1.04 1.29 1.40 0.95 0.68 0.62 0.56 0.47 0.45 0.41 0.34 0.35
0.66 0.83 1.08 1.29 1.49 1.85 2.25 2.53 2.43 2.17 2.03 1.97 1.87 1.62 1.59 1.59 1.52 1.43 1.23 1.04 1.05 1.03 0.98 0.97 0.98 1.03 1.06 0.96 0.92 1.03 1.01 0.85 1.10 1.21 1.06 0.69 0.52 0.42 0.36 0.36 0.33 0.32 0.38
0.61 0.84 1.13 1.29 1.31 1.50 1.65 1.58 1.31 1.04 1.01 1.05 1.00 1.14 1.32 1.45 1.49 1.52 1.42 1.26 1.21 1.18 1.12 1.03 0.94 0.91 0.94 0.92 0.88 0.96 0.95 0.83 0.87 1.01 1.15 0.88 0.55 0.42 0.30 0.31 0.36 0.43 0.50
0.48 0.69 0.88 0.91 0.97 1.02 0.89 0.76 0.67 0.57 0.54 0.54 0.58 0.66 0.86 1.16 1.36 1.54 1.59 1.60 1.52 1.37 1.24 1.11 0.94 0.81 0.79 0.82 0.75 0.80 0.89 0.89 0.79 0.80 0.87 0.90 0.90 0.81 0.48 0.28 0.30 0.47 0.54
0.52 0.54 0.52 0.52 0.54 0.53 0.45 0.39 0.41 0.43 0.44 0.46 0.54 0.56 0.54 0.61 0.63 0.71 0.84 1.00 1.13 1.10 0.96 0.89 0.83 0.73 0.67 0.67 0.70 0.80 0.87 0.89 0.80 0.80 0.79 0.83 0.96 0.96 0.83 0.52 0.46 0.51 0.49
0.34 0.35 0.34 0.33 0.31 0.28 0.26 0.32 0.39 0.48 0.50 0.52 0.54 0.52 0.52 0.58 0.58 0.59 0.62 0.62 0.66 0.68 0.66 0.64 0.66 0.65 0.64 0.63 0.63 0.69 0.77 0.85 0.89 0.90 0.96 1.00 1.00 1.06 1.13 0.92 0.76 0.70 0.62
0.18 0.18 0.20 0.22 0.18 0.16 0.14 0.17 0.24 0.33 0.35 0.38 0.43 0.46 0.53 0.56 0.52 0.48 0.45 0.44 0.44 0.47 0.51 0.54 0.59 0.59 0.63 0.69 0.76 0.76 0.76 0.83 0.93 0.97 1.05 1.14 1.14 1.21 1.30 1.23 1.04 0.95 0.93
0.09 0.08 0.08 0.09 0.09 0.09 0.09 0.09 0.10 0.14 0.20 0.26 0.34 0.48 0.66 0.72 0.68 0.66 0.53 0.49 0.48 0.47 0.50 0.57 0.63 0.62 0.64 0.65 0.74 0.78 0.85 0.91 0.94 0.95 1.10 1.19 1.15 1.26 1.39 1.41 1.37 1.25 1.26
0.07 0.04 0.04 0.04 0.04 0.04 0.05 0.06 0.06 0.10 0.17 0.24 0.31 0.37 0.42 0.49 0.50 0.52 0.51 0.48 0.54 0.50 0.55 0.63 0.71 0.74 0.74 0.76 0.80 0.81 0.91 1.08 1.15 1.14 1.17 1.23 1.22 1.27 1.39 1.49 1.52 1.50 1.45
0.04 0.02 0.02 0.02 0.02 0.03 0.05 0.08 0.07 0.14 0.27 0.40 0.46 0.36 0.29 0.27 0.33 0.42 0.49 0.51 0.54 0.55 0.59 0.63 0.66 0.71 0.73 0.76 0.80 0.86 0.96 1.10 1.17 1.25 1.35 1.34 1.30 1.34 1.40 1.44 1.54 1.63 1.63
0.03 0.01 0.01 0.01 0.02 0.03 0.07 0.18 0.24 0.31 0.43 0.58 0.66 0.55 0.38 0.31 0.31 0.35 0.34 0.36 0.44 0.54 0.61 0.58 0.52 0.49 0.55 0.66 0.80 0.88 0.96 1.05 1.08 1.15 1.17 1.16 1.19 1.23 1.19 1.26 1.38 1.54 1.65
0.01 0.01 0.01 0.01 0.01 0.03 0.14 0.38 0.63 0.89 0.95 1.03 1.11 0.96 0.58 0.36 0.29 0.24 0.23 0.29 0.41 0.52 0.57 0.54 0.49 0.47 0.54 0.66 0.80 0.96 1.16 1.28 1.24 1.16 1.07 1.00 1.05 1.11 1.14 1.23 1.26 1.32 1.50
0.01 0.01 0.01 0.01 0.01 0.03 0.09 0.24 0.32 0.56 0.77 0.93 1.04 0.84 0.46 0.26 0.19 0.17 0.22 0.36 0.47 0.51 0.52 0.53 0.58 0.68 0.77 0.87 0.99 1.05 1.19 1.24 1.15 1.10 1.02 0.95 0.94 0.96 1.03 1.14 1.21 1.21 1.29
0.01 0.01 0.01 0.01 0.02 0.02 0.04 0.14 0.19 0.20 0.29 0.53 0.68 0.55 0.32 0.21 0.17 0.17 0.23 0.29 0.32 0.37 0.47 0.59 0.76 0.88 0.93 0.96 1.03 1.01 0.98 0.98 0.90 0.83 0.78 0.83 0.93 0.97 0.92 0.91 0.95 1.02 1.12
0.01 0.01 0.01 0.01 0.02 0.02 0.04 0.10 0.15 0.15 0.23 0.43 0.54 0.43 0.27 0.19 0.13 0.11 0.13 0.18 0.26 0.32 0.44 0.61 0.70 0.70 0.72 0.79 0.87 0.87 0.84 0.79 0.74 0.65 0.51 0.51 0.69 0.84 0.85 0.79 0.78 0.79 0.86
0.02 0.02 0.02 0.01 0.02 0.03 0.04 0.04 0.07 0.12 0.21 0.37 0.49 0.43 0.33 0.21 0.13 0.11 0.13 0.19 0.26 0.31 0.39 0.48 0.49 0.45 0.36 0.35 0.39 0.47 0.55 0.59 0.59 0.50 0.44 0.43 0.48 0.53 0.56 0.61 0.64 0.67 0.70
0.02 0.01 0.01 0.01 0.01 0.03 0.05 0.06 0.06 0.10 0.22 0.37 0.46 0.47 0.42 0.31 0.24 0.16 0.17 0.23 0.28 0.32 0.38 0.37 0.38 0.40 0.38 0.26 0.20 0.21 0.32 0.40 0.42 0.41 0.41 0.35 0.32 0.34 0.31 0.32 0.35 0.39 0.46
0.01 0.01 0.01 0.01 0.01 0.02 0.03 0.05 0.06 0.10 0.19 0.31 0.44 0.50 0.48 0.45 0.42 0.33 0.31 0.33 0.37 0.40 0.44 0.40 0.40 0.43 0.41 0.29 0.21 0.17 0.19 0.30 0.34 0.35 0.34 0.32 0.34 0.34 0.31 0.26 0.25 0.23 0.25
0.01 0.01 0.01 0.02 0.02 0.03 0.03 0.04 0.06 0.10 0.17 0.26 0.41 0.50 0.52 0.51 0.49 0.47 0.46 0.49 0.53 0.49 0.47 0.45 0.46 0.49 0.49 0.35 0.23 0.18 0.25 0.35 0.35 0.35 0.33 0.32 0.32 0.31 0.29 0.29 0.26 0.24 0.24
0.01 0.01 0.01 0.02 0.03 0.04 0.05 0.07 0.09 0.15 0.23 0.28 0.39 0.54 0.64 0.69 0.68 0.65 0.60 0.60 0.69 0.63 0.56 0.51 0.53 0.57 0.63 0.53 0.31 0.23 0.33 0.48 0.50 0.51 0.46 0.39 0.35 0.32 0.24 0.25 0.27 0.24 0.22
0.01 0.02 0.02 0.03 0.05 0.06 0.10 0.15 0.19 0.25 0.27 0.31 0.37 0.51 0.70 0.81 0.81 0.83 0.78 0.75 0.76 0.78 0.77 0.69 0.69 0.71 0.75 0.67 0.39 0.29 0.41 0.56 0.65 0.66 0.60 0.50 0.40 0.31 0.26 0.25 0.26 0.25 0.25
0.01 0.02 0.03 0.05 0.06 0.10 0.19 0.28 0.33 0.34 0.35 0.39 0.47 0.58 0.71 0.65 0.66 0.88 0.93 0.95 0.99 0.97 0.92 0.87 0.81 0.79 0.80 0.73 0.49 0.31 0.41 0.59 0.77 0.82 0.76 0.66 0.51 0.38 0.31 0.29 0.27 0.26 0.25
0.03 0.04 0.06 0.09 0.13 0.21 0.35 0.47 0.47 0.46 0.46 0.50 0.56 0.63 0.70 0.80 0.92 1.00 1.02 1.05 1.08 1.09 1.02 0.97 0.93 0.89 0.90 0.86 0.56 0.39 0.46 0.58 0.75 0.93 0.94 0.77 0.61 0.51 0.39 0.36 0.36 0.31 0.27
0.03 0.05 0.10 0.19 0.27 0.37 0.50 0.58 0.57 0.57 0.56 0.58 0.59 0.63 0.74 0.83 0.94 1.11 1.18 1.18 1.13 1.12 1.09 1.02 0.98 0.98 1.02 1.05 0.81 0.58 0.58 0.67 0.75 0.88 0.94 0.84 0.71 0.62 0.51 0.44 0.42 0.38 0.34
0.05 0.09 0.17 0.26 0.34 0.47 0.58 0.59 0.61 0.68 0.71 0.67 0.66 0.66 0.74 0.88 0.97 1.08 1.17 1.18 1.22 1.05 1.00 0.94 0.91 0.93 1.01 1.03 0.85 0.76 0.79 0.90 0.95 0.93 0.96 0.95 0.81 0.70 0.61 0.54 0.53 0.51 0.48
0.08 0.15 0.24 0.29 0.33 0.45 0.60 0.65 0.73 0.81 0.85 0.82 0.74 0.70 0.75 0.88 0.99 1.09 1.09 0.93 0.88 0.71 0.63 0.64 0.61 0.65 0.71 0.81 0.70 0.61 0.71 0.87 0.94 0.91 0.92 0.95 0.90 0.79 0.69 0.61 0.61 0.60 0.56

GEFSMW_prec_meanprecacc_078.txt.gz
Total_Precipitation_Accumulation
0.55 0.77 0.93 1.16 1.53 1.95 2.53 3.14 3.62 3.67 3.42 3.05 2.66 2.39 2.06 1.83 1.61 1.37 1.19 1.11 1.10 1.17 1.32 1.18 1.25 1.32 1.24 1.16 1.17 1.23 1.25 1.08 1.33 1.44 0.99 0.71 0.64 0.58 0.49 0.48 0.45 0.38 0.40
0.70 0.86 1.11 1.32 1.52 1.91 2.32 2.61 2.53 2.29 2.12 2.03 1.90 1.64 1.61 1.60 1.54 1.45 1.25 1.05 1.06 1.05 1.00 0.99 1.00 1.05 1.08 0.99 0.95 1.06 1.04 0.88 1.13 1.24 1.09 0.71 0.54 0.44 0.38 0.38 0.37 0.37 0.46
0.64 0.86 1.14 1.31 1.34 1.54 1.69 1.61 1.36 1.10 1.06 1.08 1.02 1.15 1.34 1.46 1.50 1.53 1.44 1.28 1.22 1.18 1.12 1.03 0.95 0.91 0.95 0.93 0.90 0.98 0.98 0.86 0.90 1.03 1.18 0.91 0.59 0.45 0.32 0.34 0.39 0.48 0.58
0.50 0.70 0.89 0.92 0.99 1.03 0.91 0.79 0.69 0.59 0.56 0.56 0.61 0.68 0.88 1.17 1.38 1.55 1.60 1.61 1.52 1.37 1.24 1.11 0.94 0.81 0.79 0.83 0.77 0.82 0.92 0.92 0.82 0.82 0.90 0.93 0.93 0.85 0.50 0.31 0.33 0.50 0.59
0.52 0.54 0.52 0.52 0.55 0.54 0.46 0.41 0.43 0.45 0.46 0.47 0.56 0.59 0.56 0.62 0.64 0.72 0.85 1.02 1.14 1.10 0.96 0.89 0.83 0.74 0.68 0.67 0.71 0.81 0.89 0.91 0.83 0.83 0.82 0.86 0.98 1.00 0.87 0.55 0.48 0.53 0.51
0.34 0.35 0.34 0.33 0.31 0.29 0.26 0.33 0.40 0.50 0.51 0.52 0.55 0.55 0.54 0.60 0.60 0.60 0.63 0.63 0.66 0.68 0.66 0.65 0.67 0.66 0.65 0.64 0.64 0.70 0.79 0.87 0.91 0.93 0.98 1.02 1.02 1.08 1.16 0.94 0.78 0.72 0.64
0.18 0.19 0.20 0.22 0.18 0.17 0.15 0.17 0.25 0.34 0.36 0.39 0.44 0.47 0.54 0.57 0.53 0.48 0.46 0.45 0.45 0.47 0.51 0.55 0.59 0.60 0.64 0.70 0.77 0.77 0.77 0.85 0.95 0.99 1.08 1.17 1.16 1.22 1.32 1.25 1.06 0.97 0.95
0.09 0.08 0.08 0.09 0.09 0.09 0.10 0.10 0.11 0.15 0.20 0.26 0.35 0.49 0.66 0.72 0.68 0.66 0.53 0.49 0.48 0.47 0.50 0.58 0.63 0.63 0.65 0.66 0.76 0.80 0.86 0.93 0.96 0.97 1.12 1.22 1.18 1.29 1.42 1.44 1.40 1.27 1.28
0.07 0.04 0.04 0.04 0.04 0.05 0.05 0.06 0.07 0.10 0.18 0.25 0.32 0.37 0.42 0.50 0.51 0.52 0.51 0.48 0.54 0.50 0.55 0.63 0.71 0.74 0.75 0.77 0.81 0.82 0.92 1.09 1.16 1.15 1.19 1.25 1.24 1.29 1.41 1.52 1.55 1.53 1.49
0.04 0.02 0.02 0.02 0.02 0.03 0.05 0.08 0.07 0.14 0.28 0.40 0.46 0.36 0.29 0.27 0.34 0.43 0.49 0.51 0.54 0.55 0.59 0.64 0.67 0.72 0.74 0.77 0.81 0.87 0.97 1.12 1.19 1.27 1.36 1.35 1.31 1.36 1.42 1.47 1.58 1.68 1.69
0.03 0.01 0.01 0.01 0.02 0.03 0.07 0.18 0.24 0.31 0.43 0.58 0.66 0.55 0.38 0.31 0.32 0.35 0.34 0.37 0.45 0.55 0.61 0.58 0.52 0.50 0.55 0.67 0.82 0.89 0.98 1.06 1.10 1.17 1.19 1.18 1.20 1.25 1.22 1.29 1.42 1.57 1.70
0.01 0.01 0.01 0.01 0.01 0.03 0.14 0.38 0.63 0.89 0.95 1.03 1.11 0.96 0.58 0.36 0.29 0.24 0.23 0.30 0.42 0.52 0.57 0.54 0.49 0.48 0.54 0.67 0.81 0.97 1.17 1.29 1.25 1.18 1.09 1.02 1.07 1.14 1.16 1.26 1.29 1.35 1.54
0.01 0.01 0.01 0.01 0.01 0.03 0.09 0.24 0.32 0.56 0.77 0.93 1.04 0.84 0.46 0.26 0.20 0.18 0.23 0.36 0.48 0.52 0.52 0.54 0.59 0.69 0.77 0.88 1.00 1.06 1.20 1.25 1.16 1.11 1.04 0.97 0.96 0.98 1.06 1.16 1.24 1.24 1.32
0.01 0.01 0.01 0.01 0.02 0.02 0.04 0.14 0.19 0.20 0.29 0.53 0.68 0.55 0.32 0.21 0.17 0.18 0.23 0.29 0.32 0.38 0.47 0.60 0.77 0.88 0.94 0.97 1.04 1.03 1.00 1.00 0.92 0.85 0.80 0.85 0.95 0.99 0.96 0.95 0.99 1.06 1.16
0.01 0.01 0.01 0.01 0.02 0.02 0.04 0.10 0.15 0.15 0.23 0.43 0.54 0.43 0.27 0.19 0.13 0.11 0.13 0.18 0.26 0.32 0.45 0.61 0.71 0.71 0.73 0.80 0.88 0.89 0.86 0.82 0.76 0.67 0.53 0.53 0.71 0.85 0.87 0.82 0.83 0.85 0.93
0.02 0.02 0.02 0.01 0.02 0.03 0.04 0.04 0.07 0.12 0.21 0.37 0.49 0.43 0.33 0.21 0.13 0.11 0.13 0.20 0.26 0.32 0.40 0.49 0.50 0.46 0.36 0.35 0.39 0.48 0.56 0.61 0.61 0.53 0.47 0.46 0.50 0.54 0.56 0.61 0.66 0.71 0.76
0.02 0.01 0.01 0.01 0.01 0.03 0.05 0.06 0.06 0.10 0.22 0.37 0.46 0.47 0.42 0.32 0.24 0.17 0.17 0.23 0.29 0.33 0.39 0.39 0.40 0.41 0.40 0.27 0.20 0.21 0.32 0.41 0.44 0.44 0.45 0.37 0.34 0.36 0.34 0.35 0.36 0.40 0.47
0.01 0.01 0.01 0.01 0.01 0.02 0.03 0.05 0.06 0.10 0.19 0.31 0.44 0.50 0.49 0.45 0.43 0.33 0.31 0.34 0.38 0.41 0.45 0.42 0.41 0.45 0.42 0.29 0.21 0.17 0.20 0.31 0.35 0.37 0.37 0.36 0.39 0.39 0.36 0.34 0.33 0.30 0.30
0.01 0.01 0.01 0.02 0.02 0.03 0.03 0.04 0.06 0.10 0.17 0.26 0.41 0.50 0.52 0.51 0.49 0.48 0.47 0.50 0.54 0.50 0.47 0.46 0.48 0.50 0.50 0.36 0.23 0.18 0.25 0.37 0.38 0.38 0.37 0.36 0.37 0.35 0.30 0.34 0.35 0.34 0.34
0.01 0.01 0.01 0.02 0.03 0.04 0.05 0.07 0.09 0.15 0.23 0.28 0.39 0.54 0.64 0.69 0.69 0.66 0.61 0.61 0.70 0.63 0.57 0.52 0.54 0.58 0.65 0.54 0.31 0.23 0.34 0.50 0.54 0.56 0.52 0.41 0.37 0.33 0.25 0.29 0.36 0.34 0.33
0.01 0.02 0.02 0.03 0.05 0.06 0.10 0.15 0.19 0.25 0.27 0.31 0.37 0.51 0.71 0.81 0.81 0.83 0.79 0.76 0.77 0.78 0.78 0.70 0.70 0.72 0.77 0.68 0.39 0.29 0.41 0.58 0.69 0.71 0.66 0.56 0.42 0.31 0.27 0.27 0.33 0.34 0.36
0.01 0.02 0.03 0.05 0.06 0.10 0.19 0.28 0.33 0.34 0.35 0.39 0.47 0.58 0.71 0.65 0.66 0.89 0.94 0.96 1.00 0.99 0.94 0.89 0.82 0.81 0.83 0.75 0.50 0.31 0.41 0.59 0.79 0.86 0.82 0.72 0.53 0.38 0.33 0.32 0.31 0.29 0.30
0.03 0.04 0.06 0.09 0.13 0.21 0.35 0.47 0.47 0.46 0.46 0.50 0.56 0.63 0.70 0.80 0.93 1.01 1.03 1.06 1.10 1.11 1.04 0.99 0.95 0.91 0.93 0.89 0.57 0.40 0.47 0.58 0.76 0.96 0.98 0.80 0.63 0.53 0.42 0.39 0.40 0.36 0.33
0.03 0.05 0.10 0.19 0.27 0.37 0.50 0.58 0.57 0.57 0.56 0.58 0.59 0.63 0.74 0.83 0.95 1.12 1.18 1.19 1.15 1.14 1.12 1.04 1.00 1.00 1.05 1.08 0.83 0.60 0.60 0.69 0.77 0.91 0.97 0.87 0.72 0.64 0.55 0.48 0.47 0.45 0.44
0.05 0.09 0.17 0.26 0.34 0.47 0.58 0.59 0.61 0.68 0.71 0.67 0.66 0.66 0.75 0.89 0.97 1.09 1.18 1.19 1.23 1.07 1.01 0.95 0.92 0.94 1.03 1.05 0.86 0.77 0.80 0.92 0.97 0.96 1.01 1.01 0.87 0.76 0.67 0.61 0.62 0.62 0.58
0.08 0.15 0.24 0.29 0.34 0.45 0.60 0.65 0.73 0.81 0.85 0.82 0.74 0.70 0.76 0.89 0.99 1.09 1.10 0.94 0.88 0.71 0.63 0.64 0.61 0.65 0.72 0.82 0.71 0.62 0.72 0.89 0.96 0.93 0.97 1.03 0.98 0.88 0.78 0.71 0.72 0.71 0.67

GEFSMW_prec_meanprecacc_084.txt.gz
Total_Precipitation_Accumulation
0.63 0.84 0.99 1.21 1.58 1.98 2.56 3.17 3.66 3.71 3.47 3.11 2.73 2.47 2.12 1.89 1.66 1.41 1.22 1.14 1.13 1.19 1.35 1.22 1.30 1.37 1.31 1.24 1.25 1.33 1.36 1.18 1.44 1.52 1.06 0.77 0.67 0.60 0.51 0.51 0.49 0.41 0.45
0.74 0.90 1.14 1.34 1.54 1.94 2.34 2.63 2.56 2.32 2.16 2.08 1.95 1.68 1.64 1.62 1.56 1.46 1.26 1.06 1.07 1.06 1.02 1.01 1.03 1.09 1.12 1.03 1.00 1.12 1.10 0.93 1.20 1.30 1.14 0.75 0.56 0.47 0.39 0.41 0.39 0.41 0.51
0.65 0.87 1.15 1.32 1.34 1.55 1.69 1.63 1.38 1.12 1.08 1.10 1.04 1.18 1.36 1.48 1.52 1.55 1.46 1.29 1.22 1.19 1.14 1.04 0.96 0.93 0.96 0.96 0.94 1.02 1.02 0.91 0.95 1.08 1.23 0.95 0.61 0.47 0.33 0.35 0.42 0.53 0.63
0.51 0.72 0.91 0.92 0.99 1.04 0.91 0.80 0.70 0.60 0.57 0.57 0.63 0.71 0.90 1.20 1.40 1.57 1.62 1.63 1.53 1.37 1.24 1.12 0.95 0.82 0.80 0.84 0.78 0.84 0.96 0.97 0.86 0.86 0.94 0.95 0.96 0.88 0.52 0.32 0.35 0.53 0.62
0.56 0.59 0.55 0.52 0.55 0.54 0.46 0.42 0.44 0.46 0.47 0.48 0.58 0.61 0.58 0.65 0.66 0.74 0.88 1.03 1.15 1.11 0.96 0.90 0.84 0.75 0.68 0.68 0.72 0.83 0.92 0.94 0.86 0.86 0.85 0.90 1.03 1.04 0.90 0.57 0.49 0.55 0.53
0.40 0.40 0.36 0.33 0.31 0.29 0.27 0.34 0.42 0.53 0.52 0.54 0.57 0.58 0.56 0.62 0.61 0.62 0.65 0.64 0.67 0.69 0.67 0.65 0.68 0.67 0.66 0.65 0.66 0.72 0.81 0.90 0.95 0.96 1.01 1.05 1.06 1.12 1.20 0.97 0.80 0.74 0.65
0.21 0.20 0.20 0.22 0.18 0.17 0.16 0.18 0.27 0.37 0.38 0.40 0.45 0.49 0.56 0.59 0.54 0.50 0.47 0.46 0.45 0.48 0.52 0.56 0.61 0.61 0.66 0.72 0.78 0.79 0.79 0.87 0.98 1.02 1.10 1.19 1.18 1.24 1.34 1.27 1.08 0.98 0.96
0.10 0.08 0.08 0.09 0.09 0.10 0.10 0.10 0.12 0.17 0.22 0.28 0.36 0.50 0.67 0.73 0.68 0.66 0.54 0.50 0.48 0.47 0.50 0.58 0.64 0.64 0.66 0.67 0.77 0.82 0.88 0.96 0.99 0.99 1.16 1.24 1.19 1.30 1.44 1.46 1.43 1.29 1.29
0.07 0.04 0.04 0.04 0.04 0.05 0.05 0.06 0.07 0.11 0.19 0.25 0.32 0.37 0.43 0.50 0.51 0.52 0.52 0.49 0.55 0.50 0.55 0.63 0.72 0.75 0.76 0.78 0.83 0.84 0.94 1.12 1.19 1.17 1.22 1.28 1.26 1.31 1.43 1.55 1.58 1.56 1.51
0.04 0.02 0.02 0.02 0.02 0.03 0.05 0.08 0.07 0.14 0.28 0.40 0.46 0.36 0.29 0.27 0.34 0.43 0.50 0.52 0.55 0.56 0.60 0.65 0.68 0.73 0.75 0.79 0.84 0.89 0.99 1.15 1.22 1.30 1.39 1.39 1.33 1.38 1.45 1.50 1.61 1.71 1.72
0.03 0.01 0.01 0.01 0.02 0.04 0.08 0.18 0.24 0.31 0.43 0.58 0.66 0.55 0.38 0.31 0.32 0.36 0.35 0.38 0.46 0.56 0.63 0.60 0.54 0.51 0.57 0.70 0.85 0.92 1.00 1.09 1.13 1.20 1.22 1.21 1.24 1.29 1.25 1.33 1.46 1.62 1.75
0.01 0.01 0.01 0.01 0.01 0.03 0.14 0.38 0.63 0.89 0.95 1.03 1.11 0.96 0.58 0.37 0.30 0.25 0.24 0.30 0.43 0.53 0.59 0.56 0.51 0.49 0.56 0.69 0.84 0.99 1.19 1.33 1.29 1.21 1.13 1.06 1.12 1.21 1.22 1.32 1.35 1.41 1.61
0.01 0.01 0.01 0.01 0.01 0.03 0.09 0.24 0.32 0.56 0.77 0.93 1.04 0.84 0.46 0.27 0.20 0.18 0.23 0.37 0.49 0.53 0.54 0.55 0.61 0.71 0.80 0.91 1.03 1.10 1.24 1.29 1.20 1.15 1.09 1.01 1.01 1.05 1.14 1.24 1.30 1.30 1.37
0.01 0.01 0.01 0.01 0.02 0.02 0.04 0.14 0.19 0.20 0.29 0.53 0.68 0.55 0.32 0.22 0.17 0.18 0.24 0.30 0.34 0.39 0.49 0.62 0.80 0.91 0.98 1.01 1.07 1.07 1.04 1.04 0.96 0.90 0.85 0.89 1.00 1.05 1.04 1.02 1.07 1.12 1.22
0.01 0.01 0.01 0.01 0.02 0.02 0.04 0.10 0.15 0.15 0.23 0.43 0.54 0.43 0.27 0.19 0.13 0.11 0.14 0.19 0.27 0.33 0.47 0.63 0.74 0.73 0.76 0.83 0.90 0.92 0.89 0.85 0.79 0.71 0.57 0.58 0.75 0.88 0.91 0.85 0.89 0.93 1.01
0.02 0.02 0.02 0.01 0.02 0.03 0.04 0.04 0.07 0.12 0.21 0.37 0.49 0.43 0.33 0.21 0.13 0.12 0.14 0.21 0.28 0.33 0.42 0.51 0.52 0.49 0.38 0.36 0.39 0.48 0.56 0.62 0.62 0.55 0.51 0.50 0.52 0.55 0.57 0.61 0.66 0.72 0.80
0.02 0.01 0.01 0.01 0.01 0.03 0.05 0.06 0.06 0.10 0.22 0.37 0.46 0.47 0.42 0.32 0.25 0.17 0.18 0.25 0.30 0.35 0.41 0.41 0.43 0.45 0.45 0.28 0.20 0.21 0.32 0.41 0.45 0.45 0.49 0.40 0.36 0.39 0.39 0.40 0.38 0.41 0.47
0.01 0.01 0.01 0.01 0.01 0.02 0.03 0.05 0.06 0.10 0.19 0.31 0.44 0.50 0.49 0.45 0.43 0.33 0.32 0.36 0.40 0.43 0.47 0.44 0.45 0.50 0.47 0.31 0.21 0.17 0.20 0.31 0.37 0.41 0.43 0.43 0.45 0.45 0.45 0.43 0.42 0.38 0.36
0.01 0.01 0.01 0.02 0.02 0.03 0.03 0.04 0.06 0.10 0.17 0.26 0.41 0.50 0.52 0.51 0.50 0.48 0.48 0.52 0.56 0.52 0.49 0.49 0.52 0.56 0.56 0.39 0.23 0.18 0.26 0.39 0.42 0.45 0.45 0.45 0.47 0.45 0.34 0.38 0.41 0.42 0.43
0.01 0.01 0.01 0.02 0.03 0.04 0.05 0.07 0.09 0.15 0.23 0.28 0.39 0.54 0.64 0.70 0.69 0.67 0.63 0.63 0.72 0.66 0.60 0.55 0.59 0.63 0.71 0.59 0.32 0.23 0.35 0.53 0.58 0.62 0.59 0.47 0.41 0.36 0.26 0.32 0.42 0.42 0.42
0.02 0.02 0.02 0.03 0.05 0.06 0.10 0.15 0.19 0.25 0.27 0.31 0.37 0.51 0.71 0.82 0.82 0.85 0.81 0.78 0.80 0.82 0.82 0.74 0.75 0.79 0.82 0.73 0.41 0.29 0.42 0.60 0.72 0.74 0.72 0.64 0.44 0.32 0.27 0.28 0.37 0.40 0.43
0.02 0.02 0.03 0.05 0.06 0.10 0.19 0.28 0.33 0.34 0.35 0.39 0.47 0.58 0.71 0.65 0.66 0.90 0.96 0.99 1.05 1.04 0.99 0.95 0.87 0.87 0.90 0.80 0.53 0.32 0.41 0.60 0.81 0.89 0.86 0.78 0.54 0.39 0.33 0.32 0.32 0.29 0.31
0.03 0.04 0.07 0.09 0.13 0.21 0.35 0.47 0.47 0.46 0.46 0.50 0.56 0.63 0.71 0.82 0.94 1.03 1.06 1.09 1.15 1.16 1.09 1.04 0.98 0.95 0.99 0.96 0.59 0.40 0.47 0.58 0.77 0.98 0.99 0.82 0.63 0.53 0.42 0.39 0.40 0.36 0.35
0.03 0.05 0.11 0.19 0.27 0.37 0.50 0.58 0.57 0.57 0.56 0.58 0.59 0.64 0.75 0.85 0.97 1.14 1.20 1.21 1.18 1.17 1.14 1.07 1.02 1.03 1.10 1.14 0.88 0.64 0.63 0.71 0.80 0.94 1.00 0.88 0.74 0.65 0.57 0.51 0.49 0.47 0.47
0.05 0.09 0.17 0.26 0.34 0.47 0.58 0.59 0.61 0.68 0.71 0.68 0.66 0.67 0.75 0.90 0.99 1.10 1.21 1.20 1.24 1.08 1.02 0.95 0.92 0.96 1.05 1.07 0.87 0.78 0.81 0.93 0.99 0.98 1.04 1.06 0.95 0.84 0.74 0.70 0.71 0.70 0.65
0.08 0.15 0.24 0.30 0.34 0.45 0.60 0.65 0.73 0.81 0.86 0.83 0.75 0.71 0.76 0.89 1.00 1.10 1.12 0.95 0.89 0.71 0.64 0.64 0.61 0.66 0.72 0.82 0.71 0.62 0.72 0.89 0.96 0.94 0.99 1.08 1.07 0.99 0.90 0.84 0.85 0.83 0.78

GEFSMW_prec_meanprecacc_090.txt.gz
Total_Precipitation_Accumulation
0.97 1.10 1.21 1.38 1.71 2.10 2.65 3.24 3.70 3.74 3.49 3.13 2.74 2.49 2.16 1.93 1.69 1.43 1.24 1.16 1.14 1.20 1.36 1.22 1.31 1.38 1.32 1.25 1.27 1.35 1.38 1.21 1.46 1.54 1.08 0.78 0.68 0.61 0.52 0.52 0.51 0.43 0.48
0.96 1.08 1.28 1.45 1.62 1.99 2.38 2.66 2.58 2.33 2.17 2.08 1.95 1.69 1.65 1.64 1.58 1.47 1.27 1.08 1.08 1.07 1.02 1.02 1.04 1.10 1.13 1.03 1.01 1.14 1.11 0.95 1.21 1.31 1.16 0.76 0.57 0.48 0.40 0.44 0.42 0.44 0.55
0.81 0.98 1.21 1.37 1.39 1.58 1.71 1.64 1.38 1.12 1.08 1.10 1.05 1.18 1.36 1.48 1.53 1.55 1.46 1.29 1.23 1.20 1.14 1.04 0.97 0.94 0.97 0.97 0.95 1.03 1.03 0.91 0.96 1.09 1.24 0.96 0.61 0.47 0.35 0.37 0.44 0.55 0.66
0.61 0.79 0.95 0.97 1.02 1.05 0.92 0.80 0.70 0.60 0.57 0.57 0.63 0.71 0.90 1.20 1.41 1.58 1.63 1.63 1.54 1.38 1.25 1.13 0.95 0.82 0.80 0.84 0.78 0.85 0.96 0.97 0.86 0.87 0.95 0.96 0.97 0.88 0.52 0.32 0.36 0.55 0.64
0.65 0.67 0.62 0.55 0.56 0.55 0.47 0.42 0.45 0.46 0.47 0.48 0.59 0.62 0.58 0.65 0.66 0.74 0.88 1.03 1.15 1.11 0.97 0.91 0.84 0.75 0.69 0.68 0.72 0.83 0.92 0.95 0.87 0.86 0.86 0.90 1.04 1.05 0.91 0.57 0.50 0.56 0.54
0.46 0.45 0.38 0.34 0.33 0.33 0.29 0.35 0.43 0.53 0.53 0.54 0.58 0.58 0.56 0.62 0.61 0.62 0.65 0.64 0.67 0.69 0.67 0.66 0.68 0.67 0.66 0.66 0.66 0.72 0.81 0.90 0.95 0.96 1.01 1.05 1.06 1.12 1.20 0.98 0.80 0.74 0.65
0.33 0.25 0.22 0.22 0.19 0.18 0.17 0.19 0.28 0.38 0.38 0.40 0.46 0.49 0.56 0.59 0.54 0.50 0.47 0.46 0.45 0.48 0.52 0.56 0.61 0.61 0.66 0.72 0.78 0.79 0.79 0.87 0.98 1.02 1.10 1.19 1.18 1.24 1.34 1.28 1.08 0.98 0.96
0.18 0.13 0.10 0.10 0.10 0.10 0.11 0.10 0.13 0.17 0.22 0.28 0.37 0.50 0.67 0.73 0.68 0.66 0.54 0.50 0.48 0.47 0.51 0.58 0.64 0.64 0.66 0.67 0.77 0.82 0.88 0.96 0.99 0.99 1.16 1.24 1.19 1.30 1.44 1.47 1.43 1.29 1.29
0.09 0.06 0.06 0.06 0.05 0.05 0.06 0.06 0.08 0.11 0.19 0.25 0.32 0.37 0.43 0.50 0.51 0.52 0.52 0.49 0.55 0.50 0.55 0.63 0.72 0.75 0.76 0.79 0.83 0.84 0.94 1.12 1.19 1.18 1.22 1.28 1.26 1.31 1.43 1.55 1.59 1.57 1.51
0.05 0.03 0.03 0.03 0.03 0.04 0.06 0.08 0.07 0.14 0.28 0.40 0.46 0.36 0.29 0.27 0.34 0.43 0.50 0.52 0.55 0.56 0.60 0.65 0.68 0.73 0.75 0.79 0.84 0.89 1.00 1.16 1.22 1.31 1.40 1.39 1.33 1.38 1.45 1.50 1.62 1.72 1.73
0.03 0.02 0.01 0.02 0.03 0.06 0.09 0.19 0.24 0.31 0.43 0.58 0.66 0.55 0.38 0.31 0.32 0.36 0.35 0.38 0.46 0.56 0.63 0.60 0.54 0.51 0.57 0.70 0.85 0.92 1.00 1.09 1.13 1.20 1.22 1.22 1.25 1.30 1.25 1.34 1.46 1.63 1.76
0.01 0.01 0.01 0.01 0.03 0.05 0.15 0.38 0.63 0.89 0.95 1.03 1.11 0.96 0.58 0.37 0.30 0.25 0.24 0.30 0.43 0.53 0.59 0.56 0.51 0.49 0.56 0.69 0.84 0.99 1.20 1.33 1.29 1.22 1.14 1.06 1.12 1.21 1.23 1.32 1.35 1.41 1.62
0.01 0.01 0.01 0.01 0.02 0.03 0.09 0.24 0.32 0.56 0.77 0.93 1.04 0.84 0.46 0.27 0.20 0.18 0.23 0.37 0.49 0.53 0.54 0.55 0.61 0.71 0.80 0.91 1.04 1.10 1.24 1.29 1.20 1.16 1.09 1.01 1.01 1.05 1.14 1.26 1.31 1.30 1.37
0.01 0.01 0.01 0.01 0.02 0.02 0.04 0.14 0.19 0.20 0.29 0.53 0.68 0.55 0.32 0.22 0.17 0.18 0.24 0.30 0.34 0.39 0.49 0.62 0.80 0.91 0.98 1.01 1.07 1.07 1.05 1.05 0.96 0.90 0.85 0.89 1.00 1.05 1.04 1.03 1.07 1.13 1.22
0.02 0.02 0.02 0.02 0.02 0.02 0.04 0.10 0.15 0.15 0.23 0.43 0.54 0.43 0.27 0.19 0.13 0.11 0.14 0.19 0.27 0.33 0.47 0.63 0.74 0.73 0.76 0.83 0.90 0.92 0.89 0.85 0.79 0.71 0.58 0.58 0.75 0.89 0.92 0.86 0.90 0.94 1.02
0.02 0.02 0.02 0.02 0.02 0.03 0.04 0.04 0.07 0.12 0.21 0.37 0.49 0.43 0.33 0.21 0.13 0.12 0.14 0.21 0.28 0.34 0.42 0.51 0.52 0.49 0.38 0.36 0.40 0.48 0.56 0.62 0.63 0.56 0.51 0.50 0.52 0.55 0.57 0.62 0.66 0.73 0.81
0.02 0.02 0.01 0.01 0.01 0.03 0.05 0.06 0.06 0.10 0.22 0.37 0.46 0.47 0.42 0.32 0.25 0.17 0.18 0.25 0.30 0.35 0.41 0.41 0.43 0.45 0.45 0.29 0.20 0.21 0.33 0.41 0.45 0.45 0.49 0.40 0.36 0.40 0.40 0.40 0.39 0.42 0.48
0.01 0.01 0.01 0.01 0.01 0.02 0.03 0.05 0.06 0.10 0.19 0.31 0.44 0.50 0.49 0.45 0.43 0.33 0.32 0.36 0.40 0.43 0.47 0.44 0.45 0.50 0.47 0.31 0.21 0.18 0.20 0.31 0.37 0.41 0.43 0.44 0.45 0.46 0.46 0.44 0.43 0.38 0.36
0.02 0.02 0.02 0.02 0.03 0.03 0.03 0.04 0.06 0.10 0.17 0.26 0.41 0.51 0.52 0.51 0.50 0.48 0.48 0.52 0.56 0.52 0.50 0.50 0.52 0.56 0.57 0.39 0.23 0.18 0.26 0.39 0.42 0.45 0.45 0.45 0.47 0.45 0.35 0.38 0.41 0.42 0.44
0.03 0.02 0.02 0.02 0.03 0.04 0.05 0.07 0.09 0.15 0.23 0.28 0.40 0.54 0.64 0.70 0.69 0.67 0.63 0.63 0.72 0.66 0.60 0.56 0.59 0.65 0.72 0.59 0.32 0.23 0.35 0.53 0.58 0.62 0.59 0.48 0.41 0.36 0.26 0.32 0.43 0.42 0.43
0.04 0.03 0.03 0.03 0.05 0.06 0.10 0.15 0.19 0.25 0.27 0.31 0.38 0.51 0.71 0.82 0.82 0.85 0.82 0.79 0.81 0.83 0.83 0.75 0.76 0.80 0.83 0.73 0.41 0.30 0.42 0.60 0.72 0.75 0.72 0.65 0.44 0.32 0.27 0.28 0.37 0.40 0.43
0.04 0.04 0.05 0.05 0.07 0.11 0.20 0.29 0.34 0.34 0.36 0.41 0.48 0.60 0.72 0.67 0.67 0.92 0.97 1.00 1.06 1.05 1.00 0.95 0.88 0.87 0.90 0.80 0.53 0.32 0.41 0.60 0.81 0.89 0.87 0.78 0.54 0.39 0.33 0.32 0.32 0.29 0.31
0.05 0.06 0.09 0.12 0.14 0.22 0.36 0.48 0.48 0.47 0.48 0.51 0.57 0.64 0.72 0.82 0.95 1.04 1.06 1.10 1.16 1.17 1.09 1.04 0.99 0.96 0.99 0.96 0.59 0.40 0.47 0.58 0.77 0.98 0.99 0.82 0.63 0.53 0.43 0.39 0.40 0.36 0.35
0.05 0.08 0.13 0.21 0.30 0.40 0.53 0.61 0.59 0.58 0.58 0.58 0.60 0.64 0.76 0.85 0.97 1.15 1.21 1.22 1.18 1.18 1.16 1.08 1.04 1.04 1.10 1.14 0.89 0.64 0.63 0.71 0.80 0.94 1.00 0.88 0.74 0.65 0.57 0.51 0.49 0.47 0.47
0.09 0.14 0.20 0.29 0.37 0.50 0.60 0.61 0.63 0.69 0.72 0.69 0.68 0.69 0.76 0.91 1.00 1.11 1.21 1.21 1.25 1.10 1.05 0.98 0.94 0.97 1.05 1.07 0.87 0.78 0.81 0.93 0.99 0.98 1.04 1.06 0.95 0.84 0.75 0.71 0.72 0.71 0.66
0.11 0.19 0.28 0.36 0.41 0.53 0.66 0.71 0.79 0.88 0.93 0.88 0.80 0.76 0.80 0.92 1.02 1.11 1.12 0.96 0.90 0.73 0.66 0.66 0.63 0.67 0.73 0.83 0.71 0.62 0.72 0.89 0.96 0.94 0.99 1.08 1.07 0.99 0.91 0.85 0.86 0.85 0.79

GEFSMW_prec_meanprecacc_096.txt.gz
Total_Precipitation_Accumulation
1.23 1.46 1.61 1.82 2.16 2.49 2.94 3.45 3.91 3.88 3.58 3.19 2.77 2.51 2.17 1.94 1.71 1.44 1.25 1.17 1.15 1.21 1.37 1.23 1.31 1.39 1.33 1.25 1.27 1.35 1.39 1.21 1.46 1.54 1.08 0.78 0.69 0.62 0.54 0.54 0.53 0.47 0.51
1.14 1.34 1.63 1.76 1.99 2.38 2.65 2.84 2.72 2.42 2.24 2.12 1.97 1.69 1.65 1.64 1.58 1.48 1.29 1.09 1.09 1.08 1.03 1.02 1.04 1.10 1.13 1.03 1.01 1.14 1.12 0.95 1.21 1.31 1.16 0.76 0.57 0.49 0.42 0.45 0.43 0.46 0.58
0.98 1.18 1.53 1.64 1.60 1.85 2.00 1.84 1.50 1.19 1.12 1.11 1.05 1.19 1.36 1.48 1.53 1.55 1.47 1.30 1.24 1.20 1.15 1.05 0.97 0.94 0.97 0.97 0.95 1.03 1.03 0.91 0.96 1.09 1.24 0.96 0.62 0.47 0.35 0.37 0.44 0.56 0.67
0.72 0.93 1.15 1.14 1.13 1.18 1.08 0.95 0.79 0.65 0.59 0.58 0.63 0.71 0.91 1.20 1.41 1.58 1.63 1.63 1.54 1.38 1.26 1.14 0.96 0.82 0.80 0.84 0.78 0.85 0.96 0.97 0.86 0.87 0.95 0.96 0.98 0.88 0.52 0.32 0.36 0.55 0.65
0.71 0.80 0.76 0.68 0.66 0.62 0.54 0.49 0.49 0.48 0.48 0.49 0.59 0.62 0.58 0.65 0.66 0.74 0.88 1.04 1.15 1.11 0.97 0.91 0.85 0.75 0.69 0.68 0.72 0.83 0.92 0.95 0.87 0.86 0.86 0.90 1.04 1.05 0.91 0.57 0.50 0.56 0.55
0.51 0.54 0.50 0.44 0.39 0.38 0.34 0.38 0.45 0.54 0.53 0.55 0.58 0.58 0.56 0.62 0.61 0.62 0.65 0.64 0.67 0.69 0.67 0.66 0.68 0.67 0.66 0.66 0.66 0.72 0.81 0.90 0.95 0.96 1.01 1.05 1.06 1.12 1.20 0.98 0.80 0.74 0.65
0.35 0.28 0.26 0.25 0.21 0.20 0.18 0.21 0.29 0.38 0.39 0.41 0.46 0.49 0.56 0.59 0.54 0.50 0.47 0.46 0.45 0.48 0.52 0.56 0.61 0.61 0.66 0.72 0.78 0.79 0.79 0.87 0.98 1.02 1.10 1.19 1.18 1.24 1.34 1.28 1.08 0.98 0.96
0.19 0.14 0.11 0.11 0.10 0.11 0.11 0.11 0.13 0.18 0.23 0.28 0.37 0.50 0.67 0.73 0.68 0.66 0.54 0.50 0.48 0.47 0.51 0.58 0.64 0.64 0.66 0.67 0.77 0.82 0.88 0.96 0.99 0.99 1.16 1.24 1.19 1.30 1.44 1.47 1.43 1.29 1.29
0.09 0.08 0.07 0.06 0.05 0.05 0.06 0.07 0.08 0.12 0.19 0.25 0.32 0.37 0.43 0.50 0.51 0.52 0.52 0.49 0.55 0.50 0.55 0.63 0.72 0.75 0.76 0.79 0.83 0.84 0.94 1.12 1.19 1.18 1.22 1.28 1.26 1.31 1.43 1.55 1.59 1.57 1.51
0.05 0.04 0.03 0.03 0.03 0.04 0.06 0.08 0.08 0.14 0.28 0.41 0.46 0.36 0.29 0.27 0.34 0.43 0.50 0.52 0.55 0.56 0.60 0.65 0.68 0.73 0.75 0.79 0.84 0.89 1.00 1.16 1.22 1.31 1.40 1.39 1.33 1.38 1.45 1.50 1.62 1.72 1.73
0.04 0.02 0.02 0.02 0.03 0.06 0.09 0.19 0.24 0.32 0.43 0.58 0.66 0.55 0.38 0.31 0.32 0.36 0.35 0.38 0.46 0.56 0.63 0.60 0.54 0.51 0.57 0.70 0.85 0.92 1.00 1.09 1.13 1.20 1.22 1.22 1.25 1.30 1.25 1.34 1.46 1.63 1.76
0.01 0.01 0.01 0.01 0.03 0.05 0.15 0.38 0.63 0.89 0.95 1.03 1.11 0.96 0.58 0.37 0.30 0.25 0.24 0.30 0.43 0.53 0.59 0.56 0.51 0.49 0.56 0.69 0.84 0.99 1.20 1.33 1.29 1.22 1.14 1.06 1.12 1.21 1.23 1.32 1.35 1.41 1.62
0.01 0.01 0.01 0.01 0.02 0.03 0.09 0.24 0.32 0.56 0.77 0.93 1.05 0.84 0.46 0.27 0.20 0.18 0.23 0.37 0.49 0.53 0.54 0.55 0.61 0.71 0.80 0.91 1.04 1.10 1.24 1.29 1.20 1.16 1.09 1.01 1.01 1.05 1.14 1.26 1.31 1.30 1.37
0.01 0.01 0.01 0.01 0.02 0.02 0.04 0.14 0.19 0.20 0.29 0.53 0.68 0.55 0.32 0.22 0.17 0.18 0.24 0.30 0.34 0.39 0.49 0.62 0.80 0.91 0.98 1.01 1.07 1.07 1.05 1.05 0.96 0.90 0.85 0.89 1.00 1.05 1.04 1.03 1.07 1.13 1.23
0.02 0.02 0.02 0.02 0.02 0.02 0.04 0.11 0.15 0.16 0.23 0.43 0.54 0.43 0.28 0.20 0.14 0.11 0.14 0.19 0.27 0.33 0.47 0.63 0.74 0.73 0.76 0.83 0.90 0.92 0.89 0.85 0.79 0.71 0.58 0.58 0.75 0.89 0.92 0.86 0.90 0.94 1.02
0.02 0.02 0.02 0.02 0.02 0.03 0.04 0.04 0.07 0.13 0.22 0.37 0.49 0.44 0.34 0.22 0.14 0.12 0.14 0.21 0.28 0.34 0.42 0.51 0.52 0.49 0.38 0.36 0.40 0.48 0.56 0.62 0.63 0.56 0.51 0.50 0.52 0.55 0.57 0.62 0.66 0.73 0.81
0.02 0.02 0.02 0.01 0.02 0.03 0.05 0.07 0.07 0.10 0.23 0.39 0.48 0.49 0.44 0.33 0.25 0.17 0.18 0.25 0.30 0.35 0.41 0.41 0.43 0.45 0.45 0.29 0.20 0.21 0.33 0.41 0.45 0.45 0.49 0.40 0.36 0.40 0.40 0.40 0.39 0.42 0.48
0.02 0.02 0.02 0.02 0.03 0.03 0.05 0.06 0.08 0.11 0.20 0.32 0.44 0.51 0.49 0.45 0.43 0.34 0.33 0.37 0.40 0.43 0.47 0.44 0.45 0.50 0.47 0.31 0.22 0.18 0.20 0.31 0.37 0.41 0.43 0.44 0.45 0.46 0.46 0.44 0.43 0.38 0.36
0.04 0.04 0.04 0.04 0.04 0.05 0.05 0.06 0.07 0.11 0.17 0.26 0.41 0.51 0.52 0.51 0.50 0.48 0.48 0.52 0.56 0.52 0.50 0.50 0.53 0.57 0.58 0.41 0.24 0.19 0.26 0.39 0.42 0.45 0.45 0.45 0.47 0.45 0.35 0.38 0.41 0.42 0.44
0.06 0.06 0.04 0.04 0.05 0.05 0.07 0.09 0.11 0.16 0.24 0.29 0.40 0.54 0.65 0.70 0.69 0.67 0.63 0.64 0.73 0.67 0.61 0.57 0.61 0.65 0.73 0.60 0.32 0.23 0.35 0.53 0.58 0.62 0.59 0.48 0.41 0.36 0.26 0.32 0.43 0.42 0.43
0.07 0.06 0.06 0.06 0.07 0.08 0.11 0.16 0.21 0.26 0.28 0.32 0.39 0.52 0.72 0.84 0.84 0.87 0.84 0.81 0.83 0.85 0.84 0.75 0.76 0.80 0.83 0.73 0.41 0.30 0.43 0.60 0.72 0.75 0.72 0.65 0.44 0.32 0.27 0.28 0.37 0.40 0.43
0.07 0.08 0.08 0.08 0.09 0.12 0.21 0.30 0.36 0.37 0.38 0.43 0.50 0.62 0.75 0.69 0.70 0.94 0.99 1.01 1.07 1.05 1.00 0.95 0.88 0.87 0.90 0.81 0.53 0.32 0.42 0.60 0.81 0.89 0.87 0.78 0.54 0.39 0.33 0.32 0.32 0.29 0.31
0.08 0.09 0.11 0.14 0.16 0.23 0.38 0.51 0.51 0.51 0.51 0.54 0.60 0.66 0.73 0.84 0.97 1.06 1.08 1.11 1.17 1.18 1.09 1.05 1.00 0.96 0.99 0.96 0.59 0.40 0.47 0.59 0.77 0.99 0.99 0.82 0.63 0.53 0.43 0.39 0.40 0.36 0.35
0.08 0.10 0.16 0.25 0.33 0.43 0.55 0.64 0.63 0.62 0.61 0.61 0.63 0.67 0.78 0.88 1.01 1.18 1.24 1.24 1.20 1.20 1.17 1.10 1.04 1.04 1.10 1.15 0.89 0.64 0.63 0.71 0.80 0.94 1.00 0.88 0.74 0.65 0.57 0.51 0.49 0.47 0.47
0.13 0.17 0.23 0.32 0.40 0.53 0.63 0.63 0.65 0.72 0.75 0.72 0.71 0.73 0.81 0.97 1.06 1.17 1.26 1.26 1.29 1.14 1.07 0.99 0.95 0.97 1.06 1.07 0.88 0.78 0.82 0.94 0.99 0.98 1.04 1.06 0.95 0.84 0.75 0.71 0.72 0.71 0.66
0.15 0.23 0.32 0.40 0.47 0.58 0.71 0.75 0.83 0.92 0.98 0.94 0.86 0.84 0.88 1.01 1.10 1.18 1.17 1.00 0.93 0.75 0.67 0.66 0.63 0.67 0.73 0.83 0.71 0.62 0.73 0.89 0.97 0.94 0.99 1.09 1.07 0.99 0.91 0.85 0.86 0.85 0.80

GEFSMW_prec_meanprecacc_102.txt.gz
Total_Precipitation_Accumulation
1.30 1.57 1.76 1.99 2.33 2.66 3.10 3.61 4.03 3.98 3.67 3.27 2.85 2.58 2.22 1.98 1.75 1.48 1.29 1.20 1.17 1.23 1.39 1.25 1.34 1.41 1.34 1.27 1.28 1.37 1.40 1.22 1.46 1.55 1.09 0.79 0.69 0.62 0.55 0.55 0.54 0.48 0.55
1.20 1.43 1.74 1.92 2.18 2.54 2.80 2.99 2.83 2.52 2.33 2.21 2.05 1.76 1.70 1.67 1.61 1.50 1.30 1.11 1.11 1.10 1.05 1.04 1.05 1.11 1.15 1.05 1.02 1.15 1.12 0.96 1.22 1.32 1.17 0.77 0.58 0.49 0.42 0.45 0.44 0.48 0.61
1.02 1.26 1.63 1.77 1.74 1.97 2.09 1.95 1.60 1.28 1.20 1.18 1.10 1.22 1.39 1.50 1.54 1.57 1.48 1.31 1.25 1.22 1.16 1.07 0.99 0.95 0.98 0.98 0.96 1.04 1.04 0.92 0.97 1.09 1.25 0.97 0.63 0.48 0.35 0.37 0.45 0.57 0.69
0.75 0.99 1.24 1.24 1.25 1.27 1.16 1.05 0.90 0.72 0.64 0.62 0.66 0.74 0.93 1.22 1.42 1.59 1.64 1.64 1.54 1.39 1.27 1.15 0.97 0.84 0.81 0.85 0.79 0.85 0.97 0.98 0.87 0.88 0.95 0.98 0.99 0.89 0.52 0.33 0.36 0.55 0.65
0.73 0.85 0.83 0.76 0.75 0.71 0.63 0.56 0.56 0.53 0.52 0.52 0.61 0.64 0.60 0.66 0.67 0.75 0.89 1.04 1.16 1.12 0.98 0.92 0.86 0.76 0.69 0.69 0.72 0.83 0.92 0.95 0.87 0.87 0.86 0.91 1.05 1.06 0.92 0.58 0.50 0.57 0.55
0.52 0.58 0.55 0.49 0.46 0.44 0.41 0.44 0.50 0.58 0.56 0.57 0.60 0.60 0.58 0.63 0.61 0.62 0.66 0.64 0.68 0.70 0.67 0.66 0.69 0.68 0.66 0.66 0.67 0.73 0.82 0.90 0.95 0.97 1.01 1.05 1.07 1.13 1.21 0.98 0.81 0.74 0.66
0.36 0.31 0.30 0.28 0.27 0.26 0.23 0.24 0.32 0.41 0.41 0.43 0.47 0.51 0.57 0.60 0.55 0.50 0.48 0.46 0.46 0.49 0.52 0.56 0.61 0.62 0.67 0.72 0.79 0.79 0.80 0.88 0.99 1.03 1.10 1.19 1.18 1.24 1.34 1.28 1.08 0.98 0.96
0.20 0.16 0.14 0.13 0.16 0.17 0.15 0.14 0.15 0.20 0.25 0.30 0.38 0.51 0.68 0.73 0.69 0.67 0.54 0.50 0.49 0.48 0.51 0.59 0.65 0.65 0.67 0.67 0.77 0.82 0.89 0.96 1.00 1.00 1.16 1.25 1.19 1.31 1.44 1.47 1.43 1.30 1.29
0.09 0.08 0.09 0.08 0.08 0.09 0.09 0.09 0.10 0.13 0.20 0.26 0.33 0.38 0.43 0.50 0.51 0.53 0.52 0.49 0.56 0.51 0.56 0.64 0.72 0.75 0.76 0.79 0.83 0.84 0.94 1.12 1.20 1.18 1.22 1.28 1.27 1.31 1.44 1.56 1.60 1.58 1.52
0.05 0.04 0.04 0.04 0.04 0.06 0.08 0.10 0.09 0.15 0.29 0.41 0.46 0.37 0.29 0.28 0.35 0.43 0.50 0.52 0.56 0.56 0.60 0.65 0.68 0.73 0.75 0.79 0.84 0.89 1.00 1.16 1.23 1.31 1.40 1.40 1.34 1.38 1.45 1.50 1.62 1.73 1.74
0.04 0.02 0.02 0.02 0.05 0.07 0.10 0.20 0.25 0.32 0.44 0.59 0.67 0.56 0.39 0.31 0.33 0.36 0.36 0.38 0.47 0.56 0.63 0.60 0.54 0.51 0.57 0.70 0.85 0.92 1.01 1.09 1.13 1.20 1.23 1.22 1.25 1.30 1.25 1.34 1.47 1.63 1.77
0.01 0.01 0.01 0.01 0.03 0.06 0.15 0.38 0.63 0.89 0.96 1.03 1.11 0.97 0.59 0.37 0.30 0.25 0.24 0.30 0.43 0.53 0.59 0.56 0.51 0.49 0.56 0.69 0.84 0.99 1.20 1.33 1.29 1.22 1.14 1.07 1.13 1.22 1.23 1.32 1.35 1.42 1.63
0.01 0.01 0.01 0.01 0.02 0.03 0.09 0.24 0.32 0.56 0.78 0.94 1.05 0.84 0.46 0.27 0.21 0.18 0.23 0.37 0.49 0.53 0.54 0.55 0.61 0.71 0.80 0.91 1.04 1.10 1.24 1.29 1.20 1.16 1.09 1.01 1.02 1.06 1.15 1.26 1.31 1.31 1.38
0.01 0.01 0.01 0.02 0.02 0.02 0.04 0.14 0.19 0.20 0.29 0.54 0.69 0.56 0.33 0.22 0.19 0.19 0.24 0.30 0.34 0.39 0.49 0.62 0.80 0.91 0.98 1.01 1.07 1.07 1.05 1.05 0.96 0.90 0.85 0.89 1.00 1.06 1.05 1.04 1.08 1.14 1.24
0.02 0.02 0.02 0.02 0.02 0.02 0.04 0.11 0.15 0.16 0.23 0.43 0.55 0.44 0.28 0.21 0.15 0.13 0.15 0.20 0.28 0.33 0.47 0.63 0.74 0.73 0.76 0.83 0.90 0.92 0.89 0.85 0.79 0.71 0.58 0.58 0.75 0.89 0.92 0.86 0.90 0.95 1.03
0.03 0.02 0.02 0.02 0.02 0.03 0.04 0.04 0.08 0.13 0.22 0.38 0.50 0.45 0.34 0.22 0.15 0.13 0.15 0.22 0.29 0.34 0.42 0.51 0.53 0.49 0.38 0.36 0.40 0.48 0.56 0.62 0.63 0.56 0.51 0.50 0.52 0.55 0.57 0.62 0.66 0.74 0.82
0.03 0.03 0.02 0.02 0.02 0.03 0.05 0.07 0.07 0.11 0.23 0.39 0.49 0.50 0.44 0.33 0.26 0.18 0.19 0.26 0.31 0.36 0.42 0.42 0.43 0.45 0.45 0.29 0.20 0.21 0.33 0.41 0.45 0.46 0.49 0.40 0.36 0.40 0.40 0.40 0.39 0.42 0.48
0.03 0.03 0.03 0.03 0.03 0.03 0.05 0.07 0.08 0.12 0.21 0.33 0.45 0.52 0.50 0.46 0.44 0.35 0.33 0.38 0.41 0.44 0.48 0.45 0.46 0.51 0.48 0.32 0.22 0.18 0.20 0.32 0.37 0.41 0.44 0.44 0.45 0.46 0.46 0.45 0.43 0.39 0.37
0.06 0.05 0.05 0.05 0.05 0.05 0.06 0.07 0.09 0.12 0.18 0.27 0.43 0.52 0.53 0.52 0.50 0.49 0.49 0.53 0.57 0.53 0.50 0.50 0.53 0.58 0.59 0.41 0.24 0.19 0.26 0.39 0.43 0.45 0.46 0.46 0.47 0.46 0.35 0.38 0.42 0.43 0.44
0.07 0.07 0.06 0.06 0.06 0.06 0.08 0.10 0.12 0.18 0.25 0.30 0.41 0.56 0.66 0.71 0.70 0.68 0.64 0.65 0.74 0.68 0.62 0.58 0.61 0.66 0.74 0.61 0.32 0.23 0.35 0.54 0.59 0.63 0.60 0.48 0.42 0.37 0.27 0.33 0.43 0.43 0.43
0.08 0.07 0.07 0.07 0.08 0.09 0.12 0.17 0.22 0.27 0.30 0.34 0.40 0.53 0.74 0.85 0.85 0.88 0.84 0.82 0.84 0.86 0.85 0.77 0.77 0.80 0.84 0.74 0.42 0.30 0.43 0.61 0.73 0.76 0.73 0.65 0.45 0.32 0.28 0.28 0.37 0.40 0.44
0.09 0.09 0.09 0.09 0.11 0.14 0.22 0.32 0.37 0.38 0.40 0.45 0.52 0.63 0.77 0.72 0.72 0.96 1.00 1.03 1.08 1.07 1.02 0.97 0.89 0.88 0.92 0.82 0.55 0.33 0.42 0.61 0.82 0.90 0.87 0.79 0.55 0.39 0.33 0.32 0.32 0.29 0.31
0.09 0.11 0.13 0.16 0.18 0.25 0.40 0.52 0.53 0.53 0.53 0.56 0.61 0.67 0.75 0.85 0.98 1.07 1.09 1.13 1.19 1.19 1.12 1.07 1.02 0.98 1.01 0.98 0.61 0.42 0.49 0.60 0.78 0.99 0.99 0.82 0.63 0.53 0.43 0.39 0.41 0.37 0.35
0.10 0.13 0.18 0.27 0.35 0.45 0.58 0.65 0.64 0.63 0.62 0.62 0.64 0.68 0.79 0.89 1.02 1.20 1.25 1.26 1.22 1.23 1.20 1.13 1.07 1.06 1.12 1.16 0.91 0.67 0.65 0.73 0.81 0.94 1.00 0.88 0.74 0.65 0.57 0.51 0.49 0.47 0.47
0.16 0.21 0.27 0.35 0.43 0.55 0.65 0.65 0.66 0.73 0.76 0.73 0.72 0.74 0.82 0.98 1.07 1.19 1.28 1.28 1.32 1.17 1.11 1.02 0.98 0.99 1.07 1.08 0.89 0.79 0.82 0.94 1.00 0.99 1.04 1.07 0.96 0.84 0.75 0.71 0.73 0.72 0.67
0.17 0.26 0.35 0.43 0.51 0.62 0.74 0.78 0.85 0.93 0.99 0.95 0.88 0.85 0.90 1.03 1.12 1.20 1.20 1.02 0.95 0.76 0.68 0.67 0.64 0.68 0.73 0.83 0.72 0.63 0.73 0.90 0.97 0.95 1.00 1.10 1.09 1.01 0.93 0.87 0.88 0.88 0.82